Flag for Spain Weather past 2 weeks in Sevilla, Spain

Now
68 °F

Passing clouds.


Feels Like: 68 °F
Forecast: 52 / 76 °F
Wind: 8 mph from West

Location: Sevilla / San Pablo

Current Time: Apr 27, 2015 at 8:53:46 PM

Latest Report: Apr 27, 2015 at 8:00 PM


Visibility: N/A

Pressure: 30.01 "Hg

Humidity: 49%

Dew point: 48 °F

Location of SevillaLocation

Historic Weather in Sevilla — Graph

°F

Sevilla temperature yesterday

Maximum temperature yesterday: 70 °F (at 6:00 PM)
Minimum temperature yesterday: 59 °F (at 7:00 AM)
Average temperature yesterday: 63 °F

Past Weeks' High & Low Weather Summary

 TemperatureHumidityPressure
High82 °F (Apr 23, 7:00 PM)100% (Apr 15, 7:00 AM)30.15 "Hg (Apr 15, 7:00 AM)
Low52 °F (Apr 13, 5:00 AM)21% (Apr 20, 5:30 PM)29.80 "Hg (Apr 26, 4:30 PM)
Average65 °F66%30.02 "Hg
* Reported Apr 12 7:00 PM — Apr 27 7:30 PM, Sevilla, Weather by CustomWeather, © 2015

Note: Actual official high and low records may vary slightly from our data, if they occured in-between our weather recording intervals... More about our weather records

Advertising

Sevilla weather history for previous 24 hours

 ConditionsComfort  
Time TempWeatherWind HumidityBarometerVisibility
7:30 PM
Mon, Apr 27
68 °FPassing clouds.10 mph49%30.01 "HgN/A
7:00 PM70 °FPassing clouds.10 mph46%30.01 "HgN/A
6:30 PM72 °FPassing clouds.12 mph41%30.01 "HgN/A
6:00 PM72 °FPassing clouds.10 mph44%30.01 "HgN/A
5:30 PM72 °FPassing clouds.13 mph44%30.01 "HgN/A
5:00 PM72 °FPassing clouds.10 mph44%30.04 "HgN/A
4:30 PM70 °FPassing clouds.12 mph50%30.04 "HgN/A
4:00 PM70 °FPassing clouds.12 mph46%30.04 "HgN/A
3:30 PM70 °FPassing clouds.13 mph46%30.04 "HgN/A
3:00 PM70 °FPassing clouds.14 mph46%30.04 "HgN/A
2:30 PM70 °FPassing clouds.10 mph50%30.04 "HgN/A
2:00 PM68 °FScattered clouds.12 mph46%30.04 "HgN/A
1:30 PM68 °FScattered clouds.13 mph46%30.04 "HgN/A
1:00 PM66 °FScattered clouds.9 mph56%30.04 "HgN/A
12:30 PM64 °FScattered clouds.8 mph68%30.04 "HgN/A
12:00 PM64 °FScattered clouds.8 mph68%30.04 "HgN/A
11:30 AM63 °FScattered clouds.10 mph73%30.04 "HgN/A
11:00 AM63 °FScattered clouds.9 mph73%30.04 "HgN/A
10:30 AM61 °FPassing clouds.9 mph77%30.04 "HgN/A
10:00 AM61 °FPassing clouds.10 mph77%30.04 "HgN/A
9:30 AM59 °FPassing clouds.9 mph82%30.04 "HgN/A
9:00 AM57 °FPassing clouds.No wind88%30.04 "HgN/A
8:30 AM55 °FPassing clouds.No wind94%30.01 "HgN/A
8:00 AM55 °FPassing clouds.No wind94%30.01 "HgN/A
7:30 AM55 °FPassing clouds.1 mph94%30.01 "HgN/A
7:00 AM54 °FClear.5 mph94%29.98 "Hg10 mi
6:30 AM55 °FClear.7 mph88%29.98 "Hg10 mi
6:00 AM55 °FClear.8 mph88%30.01 "Hg10 mi
5:30 AM55 °FPassing clouds.9 mph88%30.01 "HgN/A
5:00 AM55 °FPassing clouds.8 mph88%29.98 "HgN/A
4:30 AM55 °FClear.9 mph82%29.98 "Hg10 mi
4:00 AM55 °FPassing clouds.9 mph88%29.98 "HgN/A
3:30 AM55 °FClear.9 mph88%29.98 "Hg10 mi
1:00 AM59 °FPassing clouds.7 mph82%29.98 "HgN/A
12:30 AM59 °FPassing clouds.8 mph82%29.98 "HgN/A
12:00 AM59 °FPassing clouds.9 mph82%29.95 "HgN/A
11:30 PM
Sun, Apr 26
61 °FPassing clouds.10 mph77%29.95 "HgN/A
11:00 PM61 °FPassing clouds.9 mph77%29.95 "HgN/A
10:30 PM61 °FPassing clouds.10 mph77%29.92 "HgN/A
10:00 PM61 °FThundershowers. Scattered clouds.10 mph83%29.92 "HgN/A
9:30 PM63 °FThundershowers. Passing clouds.15 mph73%29.89 "HgN/A
9:00 PM63 °FPassing clouds.15 mph73%29.86 "HgN/A
8:30 PM64 °FPassing clouds.16 mph64%29.86 "HgN/A
8:00 PM64 °FPassing clouds.18 mph68%29.86 "HgN/A
Weather by CustomWeather, © 2015

See weather overviewHow to use our weather pages